Regional Weather Roundup
Issued by NWS

Home | Current Version | Previous Version | Graphics & Text | Print | Product List | Glossary On
Versions: 1 2 3 4 5 6 7 8 9 10 11 12 13 14 15 16 17 18 19 20 21 22 23 24 25 26 27 28 29 30 31 32 33 34 35 36 37 38 39 40 41 42 43 44 45 46 47 48 49 50
000
ASUS43 KLOT 011406
RWRIL

ILLINOIS REGIONAL WEATHER ROUNDUP
NATIONAL WEATHER SERVICE CHICAGO/ROMEOVILLE IL
800 AM CST SUN MAR 01 2015

NOTE: "FAIR" INDICATES FEW OR NO CLOUDS BELOW 12,000 FEET WITH NO
SIGNIFICANT WEATHER AND/OR OBSTRUCTIONS TO VISIBILITY.

* THESE STATIONS ARE NOT UNDER NWS QUALITY CONTROL. THEY ALSO MAY NOT
  REPORT WEATHER SUCH AS PRECIPITATION OR FOG.

ILZ001-002-007-009-015-016-024-011500-
NORTHWEST ILLINOIS

CITY           SKY/WX    TMP DP  RH WIND       PRES   REMARKS
MOLINE         CLOUDY    13  10  88 CALM      30.38R FOG
STERLING*      CLOUDY   N/A N/A N/A CALM      30.37R
SAVANNA*       LGT SNOW  16  13  89 CALM      30.38S
$$

ILZ003-004-008-010-011-017-018-011500-
NORTH CENTRAL ILLINOIS

CITY           SKY/WX    TMP DP  RH WIND       PRES   REMARKS
ROCKFORD       LGT SNOW  14  12  92 CALM      30.38S FOG
FREEPORT*      MOSUNNY   12   9  89 CALM      30.38R FOG
ROCHELLE*      CLOUDY    11   9  91 CALM      30.38R FOG
DE KALB*       LGT SNOW  13  10  90 CALM      30.36S VSB 3/4
PERU*          CLOUDY    17  15  91 CALM      30.40R FOG
$$

ILZ005-006-012>014-019>023-011500-
NORTHEAST ILLINOIS

CITY           SKY/WX    TMP DP  RH WIND       PRES   REMARKS
CHICAGO-OHARE  CLOUDY    17  16  95 CALM      30.37R FOG
CHICAGO-MIDWAY CLOUDY    21  19  92 CALM      30.39R
AURORA         CLOUDY    14  10  84 CALM      30.38R FOG
LANSING*       CLOUDY    19  17  90 CALM      30.39R
JOLIET*        CLOUDY    19  17  92 CALM      30.39R FOG
WAUKEGAN       CLOUDY    15  14  95 CALM      30.36S FOG
DUPAGE AIRPORT CLOUDY    15  14  95 CALM      30.36S FOG
KANKAKEE*      LGT SNOW  20  18  91 CALM      30.39R
WHEELING       CLOUDY    17  14  88 SW3       30.39R FOG
MORRIS*        CLOUDY    16  15  95 CALM      30.38R FOG
ROMEOVILLE*    CLOUDY    18  16  93 CALM      30.37S FOG
NORTHERLY ISL    N/A     21  17  84 CALM        N/A
$$

LMZ740>746-011500-
SOUTHERN LAKE MICHIGAN

STATION/POSITION SKY/WX   TEMP    WIND        PRES    VSBY  WAVE
                          AIR SEA DIR/SP/G                  HT/PER
                          (F)     (DEG/KT/KT) (MB)    (MI)  (FT/S)
WAUKEGAN HARBOR            15     230/ 13/ 16   N/A
HARRISON CRIB              21      CALM  /  1   N/A
BURNHAM HARBOR             21      CALM  /  3   N/A
CALUMET HARBOR             19     180/  4/  5 1027.5F
MICHIGAN CITY              17     120/  6/  7   N/A
$$

ILZ025>027-034>036-040-047-049-050-058-095>099-011500-
WEST-CENTRAL ILLINOIS

CITY           SKY/WX    TMP DP  RH WIND       PRES   REMARKS
QUINCY         LGT SNOW  22  19  89 CALM      30.36S FOG
GALESBURG*     SNOW      19  17  95 CALM      30.37R VSB 1/2
MACOMB*        HVY RAIN  20  19  96 CALM      30.39S VSB 3/4
JACKSONVILLE*  LGT SNOW  24  21  89 CALM      30.38R
PITTSFIELD*    FLURRIES  23  21  91 CALM      30.38S
$$

ILZ028>032-037-038-041>044-048-051>054-059>061-011500-
CENTRAL ILLINOIS

CITY           SKY/WX    TMP DP  RH WIND       PRES   REMARKS
PONTIAC        LGT SNOW  21  19  93 CALM      30.39S VSB 3/4
BLOOMINGTON    LGT SNOW  21  20  96 CALM      30.36F VSB 1
DECATUR        LGT SNOW  23  21  92 CALM      30.37R VSB 3/4
PEORIA         SNOW      22  18  85 E3        30.37S VSB 1/2
LACON*         LGT SNOW  19  16  89 CALM      30.38R
LINCOLN*       MIX PCPN  24  22  92 CALM      30.40R VSB 1
SPRINGFIELD    LGT SNOW  24  20  84 CALM      30.38R FOG
TAYLORVILLE    MIX PCPN  25  23  93 CALM      30.38R
$$

ILZ033-039-045-046-055>057-062-063-011500-
EAST-CENTRAL ILLINOIS

CITY           SKY/WX    TMP DP  RH WIND       PRES   REMARKS
CHAMPAIGN      LGT SNOW  23  20  88 NE3       30.36S FOG
DANVILLE*      LGT SNOW  21  20  94 CALM      30.34S VSB 3/4
RANTOUL*       LGT SNOW  24  21  91 CALM      30.36F
MATTOON        LGT SNOW  25  23  92 S5        30.35S VSB 3/4 WCI  19
PARIS*         SNOW      25  24  96 CALM      30.37F VSB 1/2
$$

ILZ079-100>102-011500-
SOUTHWEST ILLINOIS

CITY           SKY/WX    TMP DP  RH WIND       PRES   REMARKS
ALTON          LGT SNOW  27  25  93 VRB5      30.37F VSB 1   WCI  21
BELLEVILLE     PTSUNNY   27  27 100 CALM      30.38R FOG
CAHOKIA*       CLOUDY    28  26  92 S3        30.38S FOG
SPARTA*        MIX PCPN  28  27  97 CALM      30.38S
$$

ILZ064>066-069>071-074>076-080>082-084>086-088>090-092>094-011500-
SOUTH-CENTRAL ILLINOIS

CITY           SKY/WX    TMP DP  RH WIND       PRES   REMARKS
CARBONDALE     CLOUDY    31  29  92 CALM      30.38S FOG
CAIRO*         CLOUDY    35  31  85 N3        30.37S
EFFINGHAM*     LGT SNOW  27  24  89 CALM      30.38F VSB 1
MARION         LGT RAIN  32  30  93 N5        30.39R WCI  27
MT. VERNON     CLOUDY    28  25  86 CALM      30.38R
CENTRALIA*     LGT RAIN  28  27  93 CALM      30.37S
SALEM*         LGT SNOW  29  28  93 CALM      30.38R
METROPOLIS*    DRIZZLE   33  31  92 CALM      30.36S
$$

ILZ067-068-072-073-078-083-087-091-011500-
SOUTHEAST ILLINOIS

CITY           SKY/WX    TMP DP  RH WIND       PRES   REMARKS
LAWRENCEVILLE  LGT SNOW  30  28  92 N5        30.39R VSB 3/4 WCI  25
FLORA*         MIX PCPN  28  27  99 CALM      30.38F
FAIRFIELD*     MIX PCPN  29  28  96 N3        30.36F
HARRISBURG*    LGT RAIN  32  31  95 CALM      30.39R
ROBINSON*      MIX PCPN  28  28  99 CALM      30.40R
CARMI*         CLOUDY    33  32  96 CALM      30.37R FOG
$$

ABBREVIATIONS USED IN REMARKS
   TC - TEMPERATURE IN CELSIUS
  WCI - WIND CHILL INDEX
   HX - HEAT INDEX
  VSB - VISIBILITY
$$




USA.gov is the U.S. government's official web portal to all federal, state and local government web resources and services.